Location: Greenwich
(51.4790°N, 0.0090°E)
Time: 08:27:41
(UTC+01:00)

Explorer 7 - Pass Details

Date: 25 April 2024
Orbit: 467 x 625 km, 50.3° (Epoch: 28 May)

Event Time Altitude Azimuth Distance (km) Brightness Sun altitude
Rises 08:56:00 0° 184° (S) 2,838 10.6 28.7°
Reaches altitude 10° 09:00:01 10° 148° (SSE) 1,972 10.5 29.3°
Maximum altitude 09:01:13 11° 133° (SE) 1,917 10.8 29.5°
Drops below altitude 10° 09:02:26 10° 117° (ESE) 1,988 11.2 29.6°
Sets 09:06:32 0° 82° (E) 2,914 11.4 30.2°
